This is the latest recevied weather packets stored in our database for station/object W0CHP-13. If no packets are shown the sender has not sent any weather packets the latest 10 day(s).
| Time | Temp. | Humidity | Pressure | Rain* | Wind** | Luminosity | Snow |
|---|---|---|---|---|---|---|---|
| 1777939398 | 16.67° C | 31% | 999.4 hPa | 0 mm | - | 44 W/m² | - |
| 1777938796 | 16.67° C | 31% | 999.2 hPa | 0 mm | - | 61 W/m² | - |
| 1777938198 | 17.22° C | 30% | 999.2 hPa | 0 mm | - | 73 W/m² | - |
| 1777937597 | 17.22° C | 28% | 999.1 hPa | 0 mm | - | 92 W/m² | - |
| 1777936995 | 17.78° C | 27% | 998.9 hPa | 0 mm | - | 87 W/m² | - |
| 1777936397 | 17.78° C | 28% | 998.5 hPa | 0 mm | - | 149 W/m² | - |
| 1777935795 | 17.78° C | 29% | 998.5 hPa | 0 mm | - | 131 W/m² | - |
| 1777935197 | 17.78° C | 29% | 998.7 hPa | 0 mm | - | 89 W/m² | - |
| 1777934596 | 18.33° C | 28% | 998.4 hPa | 0 mm | - | 107 W/m² | - |
| 1777933998 | 18.33° C | 27% | 998.2 hPa | 0 mm | - | 242 W/m² | - |
| 1777933396 | 18.89° C | 24% | 998.4 hPa | 0 mm | - | 293 W/m² | - |
| 1777932798 | 18.89° C | 23% | 998 hPa | 0 mm | - | 406 W/m² | - |
| 1777932196 | 18.89° C | 22% | 997.8 hPa | 0 mm | - | 285 W/m² | - |
| 1777931598 | 20° C | 22% | 997.8 hPa | 0 mm | - | 216 W/m² | - |
| 1777930997 | 20° C | 22% | 997.5 hPa | 0 mm | - | 261 W/m² | - |
| 1777930395 | 20° C | 22% | 997.5 hPa | 0 mm | - | 219 W/m² | - |
| 1777929797 | 20° C | 22% | 997.5 hPa | 0 mm | - | 173 W/m² | - |
| 1777929195 | 20.56° C | 22% | 997.1 hPa | 0 mm | - | 290 W/m² | - |
| 1777928597 | 20.56° C | 21% | 997.1 hPa | 0 mm | - | 281 W/m² | - |
| 1777927995 | 21.11° C | 22% | 997.1 hPa | 0 mm | - | 309 W/m² | - |
| 1777927398 | 20.56° C | 24% | 997.1 hPa | 0 mm | - | 289 W/m² | - |
| 1777926796 | 21.11° C | 24% | 997.1 hPa | 0 mm | - | 256 W/m² | - |
| 1777926198 | 20.56° C | 25% | 997.1 hPa | 0 mm | - | 228 W/m² | - |
| 1777925596 | 21.11° C | 26% | 997.1 hPa | 0 mm | - | 265 W/m² | - |
| 1777924998 | 21.11° C | 25% | 997.1 hPa | 0 mm | - | 290 W/m² | - |
* Rain latest hour (hover to see other rain measurements)
** Current wind speed in m/s (hover to see current wind gust speed)